Regional Weather Roundup
Issued by NWS

Home | Current Version | Previous Version | Text Only | Print | Product List | Glossary On
Versions: 1 2 3 4 5 6 7 8 9 10 11 12 13 14 15 16 17 18 19 20 21 22 23 24 25 26 27 28 29 30 31 32 33 34 35 36 37 38 39 40 41 42 43 44 45 46 47 48 49 50
000
ASUS45 KBOI 260910
RWRID

IDAHO REGIONAL WEATHER ROUNDUP
NATIONAL WEATHER SERVICE BOISE ID
300 AM MDT FRI MAY 26 2017

NOTE: "FAIR" INDICATES FEW OR NO CLOUDS BELOW 12000 FEET
WITH NO SIGNIFICANT WEATHER AND/OR OBSTRUCTIONS TO VISIBILITY

IDZ012-014-261000-
SOUTHWEST IDAHO


CITY           SKY/WX    TMP DP  RH WIND       PRES   REMARKS
BOISE          CLOUDY    50  42  74 W6        29.81R
CALDWELL       CLOUDY    52  43  71 W12       29.82R
MOUNTAIN HOME  CLOUDY    52  42  67 W7        29.81R
$$

IDZ016-017-261000-
SOUTHCENTRAL IDAHO


CITY           SKY/WX    TMP DP  RH WIND       PRES   REMARKS
BURLEY         LGT RAIN  50  39  66 W13       29.82R
JEROME         LGT RAIN  47  44  90 SW12      29.86R
TWIN FALLS     LGT RAIN  44  43  96 SW9       29.86R
$$

IDZ019>023-261000-
SOUTHEAST IDAHO


CITY           SKY/WX    TMP DP  RH WIND       PRES   REMARKS
IDAHO FALLS    CLOUDY    38  33  82 N7        29.81F WCI  33
POCATELLO      CLOUDY    47  34  60 S3        29.82R
REXBURG        CLOUDY    41  31  67 NE6       29.81F
$$

IDZ006-010-011-018-031-032-261000-
CENTRAL IDAHO MOUNTAINS


CITY           SKY/WX    TMP DP  RH WIND       PRES   REMARKS
MCCALL         CLOUDY    42  37  82 N8        29.83R
HAILEY         RAIN      43  37  81 W6        29.87R
STANLEY          N/A     38  36  92 CALM      29.87R
SALMON         CLOUDY    46  37  71 SE7       29.88R
CHALLIS        LGT RAIN  44  39  82 N8        29.84S
$$

IDZ002-004-006-007-026-261000-
NORTHERN IDAHO


CITY           SKY/WX    TMP DP  RH WIND       PRES   REMARKS
LEWISTON       MOCLDY    51  43  74 SW6       29.86S
LOWELL           N/A     47  43  86 CALM      29.90R
COEUR D`ALENE  CLEAR     47  42  83 NE6       29.89R
MULLAN PASS    PTCLDY    40  33  76 CALM      29.92S
$$



USA.gov is the U.S. government's official web portal to all federal, state and local government web resources and services.